RH
57 49 48 43 46 41 45 43 43 42 45 47 48 48 49 49 50 51 52 53 54 54 55 57 54 52 51
56 49 48 46 46 43 33 26 39 37 40 47 48 48 48 50 51 52 53 54 54 55 56 58 56 56 54
58 53 52 43 45 40 39 38 27 33 38 42 45 47 50 53 54 54 54 55 55 57 58 58 58 57 57
50 47 44 46 45 43 47 47 41 25 34 38 45 47 46 48 50 53 56 58 58 59 59 59 59 59 59
49 48 47 51 44 51 45 46 51 53 47 47 53 56 56 50 50 51 54 56 55 56 58 58 57 57 56
48 45 43 44 52 53 53 55 58 62 61 52 54 57 55 60 52 46 47 50 52 53 55 56 55 56 57
87 75 74 59 52 54 54 60 62 61 60 60 58 60 59 45 51 48 48 49 49 50 50 50 52 55 56
78 74 59 56 50 49 52 57 63 60 62 68 65 63 58 59 51 48 49 50 50 50 50 50 53 56 57
94 78 77 61 68 82 91 93 94 80 66 70 65 62 59 59 54 53 50 49 49 49 50 53 55 56 59
95 97 96 92 83 87 82 84 82 86 70 69 66 66 77 57 52 55 53 51 51 51 53 53 52 62 69
85 78 74 75 74 74 88 94 89 82 65 67 81 79 81 83 68 60 63 58 57 54 49 48 49 49 53
88 86 82 77 70 64 64 71 88 79 72 67 87 77 81 82 83 67 65 66 61 54 55 51 50 47 47
94 92 84 78 70 71 68 67 68 68 62 77 83 84 92 91 91 85 77 70 61 62 64 59 55 55 56
94 93 95 95 94 85 83 84 85 81 65 61 61 69 80 75 74 77 71 82 70 67 63 60 58 57 54
93 91 90 88 85 88 90 94 96 93 93 91 74 66 66 67 84 77 78 80 70 68 70 74 68 62 56
61 63 67 68 70 75 79 91 89 83 85 96 97 99 98 92 88 94 85 81 78 80 76 84 90 69 58
58 68 71 76 62 90 86 86 93 93 88 95 97 97 96 91 69 57 83 88 91 95 96 90 84 69 63
Wind_Speed
4 8 7 11 7 5 5 4 4 10 9 9 8 6 5 4 4 4 4 4 5 7 7 9 8 6 4
6 7 5 7 7 6 5 5 4 9 10 11 9 8 6 5 6 6 7 7 6 7 8 10 9 9 8
5 3 4 5 4 4 4 3 4 9 10 11 11 9 8 8 8 8 8 9 8 9 9 10 12 11 12
9 7 5 3 3 4 3 3 3 4 8 8 9 9 9 8 9 9 9 11 11 11 11 10 11 12 13
7 5 5 4 8 4 4 3 4 4 3 3 3 2 4 8 8 10 10 10 10 11 12 12 11 12 14
5 8 8 6 5 4 3 3 3 4 4 3 4 4 4 4 10 12 12 11 12 12 13 14 13 14 15
4 4 4 6 6 5 6 4 4 2 3 3 3 4 4 5 13 14 14 15 15 17 17 17 15 15 16
4 3 2 4 6 5 6 4 1 3 3 4 3 4 3 4 15 16 17 19 20 19 18 17 16 17 17
10 12 13 15 9 3 3 3 2 4 4 3 4 3 4 4 6 19 21 21 19 19 17 18 18 17 10
4 7 11 12 19 11 7 7 4 2 5 4 3 3 3 5 8 6 5 16 18 17 20 17 14 3 2
8 7 6 6 6 5 5 6 7 7 5 5 3 3 4 3 2 3 5 5 5 7 13 13 14 14 6
7 8 7 6 6 7 8 6 6 9 6 10 5 6 5 6 5 4 4 4 3 3 3 11 19 21 20
7 7 7 7 7 6 7 7 8 8 9 8 8 7 7 7 5 5 5 4 5 6 4 5 6 4 7
4 2 1 3 3 5 7 7 7 7 10 12 12 10 9 9 8 8 6 6 4 6 7 7 6 5 6
1 2 4 4 4 3 2 2 5 5 3 4 7 9 9 11 8 7 7 6 6 8 8 8 7 7 7
5 6 6 6 5 5 4 5 5 5 4 2 2 2 2 6 13 7 8 8 7 8 9 9 7 6 8
6 5 5 4 7 3 4 4 3 3 4 2 3 4 7 10 7 16 9 9 6 6 5 7 9 9 8
Wind_Direction
114 147 140 152 148 139 155 163 207 194 190 188 185 184 192 206 222 250 261 260 278 289 288 280 269 261 264
139 154 148 152 143 145 176 193 190 215 202 197 197 201 210 228 241 249 260 264 265 278 289 290 287 281 272
133 132 109 141 134 155 177 209 197 218 219 215 214 218 225 230 241 246 256 264 264 267 273 276 280 280 284
132 144 148 135 142 155 185 188 204 223 226 216 224 226 229 231 243 251 259 260 261 260 262 265 275 281 283
143 147 155 155 192 160 183 156 220 207 213 242 190 210 241 249 263 247 250 254 262 265 261 260 262 269 275
160 172 184 168 155 167 151 158 219 214 178 226 183 218 233 230 242 242 243 244 249 251 252 256 263 270 273
122 162 144 167 156 177 183 168 183 191 134 229 196 218 212 227 234 239 247 252 258 263 263 263 264 265 268
186 212 201 175 179 185 190 190 161 224 165 211 199 225 230 221 242 247 250 265 266 261 260 257 258 262 265
188 206 218 219 207 154 175 136 217 201 195 199 201 224 218 223 232 250 261 262 262 262 258 260 258 261 278
262 270 230 217 221 205 187 201 197 198 194 215 208 176 267 223 230 237 248 262 260 266 265 256 266 263 253
218 222 225 217 229 240 217 197 206 224 194 183 189 193 210 255 241 218 212 242 245 251 261 260 261 278 269
206 214 217 217 222 223 231 220 212 225 212 231 222 215 224 242 245 216 228 231 226 233 218 251 266 274 274
209 210 211 216 219 219 225 226 230 229 235 221 229 228 228 239 243 206 217 237 236 243 218 221 235 234 259
230 201 161 173 204 229 225 224 234 237 231 231 229 228 235 233 236 241 226 226 208 223 234 239 239 230 236
186 202 208 212 210 203 239 305 259 237 241 236 247 244 244 244 245 234 231 229 225 234 229 238 232 228 242
224 227 234 233 230 222 210 208 244 252 246 210 219 222 255 240 228 242 240 238 234 235 233 241 237 241 246
223 216 213 207 247 181 208 211 222 226 237 207 221 236 256 261 260 255 245 235 210 211 220 231 247 253 259